Starlink 32348

operational
NORAD ID: 61631 Int'l Des: 2024-191 Owner: SPXS Country: US Constellation: starlink
LEOCIRCULAR

About Starlink 32348

Description loading...

Live Position

Loading 3D Globe...

Upcoming Passes

Altitude History

Altitude vs Time

uPlot chart will show altitude changes over time

Two-Line Element Set

1 61631U 24191L 25259.16194854 .00000406 00000-0 24267-4 0 9990
2 61631 42.9983 63.6963 0002000 272.1215 87.9407 15.27589630 50803
Epoch: Sep 16, 2025 • Age: 7 hours

Current Status

Altitude 494.9 km
Velocity 7.62 km/s
Sub-Earth Point -42.77°S, 157.27°E
Launch Date Oct 23, 2024
Age 0.8 years
Type internet

Technical Details

Classification Payload
Mass 730.00 kg
Dry Mass 700.00 kg
Total Mass 730.00 kg
Length 0.30 m
Diameter 4.10 m
Span 29.00 m
Shape Box + pan
Manufacturer SPXS
Bus Type Starlink V2M
Phase Status In Orbit
Owner/State SPXS/US

Large Constellations

Loading constellations...